Weather History for New Bern, NC

Change the Weather History Date:

Monday, February 11, 2013

  Actual Average Record
Temperature  
Mean Temperature 59 °F 46 °F  
Max Temperature 67 °F 57 °F 80 °F (1965)
Min Temperature 50 °F 36 °F 16 °F (1968)
Degree Days  
Heating Degree Days 6 19  
Month to date heating degree days 178 213  
Since 1 July heating degree days 1622 1853  
Cooling Degree Days 0 0  
Month to date cooling degree days 0 0  
Year to date cooling degree days 7 1  
Growing Degree Days 8 (Base 50)    
Moisture  
Dew Point 58 °F    
Average Humidity 85    
Maximum Humidity 93    
Minimum Humidity 77    
Precipitation  
Precipitation 0.16 in 0.12 in 1.96 in (1983)
Month to date precipitation 2.01 1.36  
Year to date precipitation 3.84 5.38  
Snow  
Snow 0.00 in - - ()
Month to date snowfall 0.0  
Since 1 July snowfall 0.0  
Snow Depth 0.00 in    
Sea Level Pressure  
Sea Level Pressure 30.08 in    
Wind  
Wind Speed 9 mph (SSW)    
Max Wind Speed 17 mph    
Max Gust Speed 28 mph    
Visibility 8 miles    
Events Rain    
T = Trace of Precipitation, MM = Missing Value Source: NWS Daily Summary

Daily Weather History Graph

Daily Weather History Graph

Search for Another Location

Airport:

Trip Planner

Search our weather history database for the weather conditions in past years. The results will help you decide how hot, cold, wet, or windy it might be!

Date:

Astronomy

Feb. 11, 2013 Rise Set
Actual Time 6:58 AM EST 5:47 PM EST
Civil Twilight 6:32 AM EST 6:13 PM EST
Nautical Twilight 6:02 AM EST 6:43 PM EST
Astronomical Twilight 5:32 AM EST 7:12 PM EST
Moon 7:26 AM EST (2/11) 7:35 PM EST (2/11)
Length of Visible Light 11h 41m
Length of Day
10h 49m
Waxing Crescent, 3% of the Moon is Illuminated
Feb 11
Waxing Crescent
Feb 17
First Quarter
Feb 25
Full
Mar 4
Last Quarter
Mar 11
New

Hourly Weather History & Observations

Time (EST) Temp. Dew Point Humidity Pressure Visibility Wind Dir Wind Speed Gust Speed Precip Events Conditions
12:54 AM 51.1 °F 45.0 °F 80% 30.30 in 10.0 mi SE 4.6 mph - N/A   Mostly Cloudy
1:54 AM 53.1 °F 46.9 °F 80% 30.24 in 10.0 mi South 6.9 mph - 0.00 in Rain Light Rain
2:54 AM 57.9 °F 51.1 °F 78% 30.21 in 10.0 mi South 9.2 mph - 0.00 in   Mostly Cloudy
3:54 AM 59.0 °F 52.0 °F 78% 30.18 in 10.0 mi South 10.4 mph - 0.00 in Rain Light Rain
4:54 AM 60.1 °F 53.1 °F 78% 30.17 in 10.0 mi South 8.1 mph - 0.00 in Rain Light Rain
5:54 AM 61.0 °F 55.0 °F 81% 30.14 in 10.0 mi South 11.5 mph - 0.01 in   Overcast
6:54 AM 62.1 °F 55.9 °F 80% 30.15 in 10.0 mi SSW 10.4 mph 26.5 mph 0.00 in Rain Light Rain
7:54 AM 62.1 °F 55.9 °F 80% 30.17 in 7.0 mi SSW 10.4 mph 19.6 mph 0.01 in Rain Light Rain
8:54 AM 62.1 °F 57.9 °F 86% 30.16 in 10.0 mi South 9.2 mph - 0.03 in Rain Light Rain
9:54 AM 63.0 °F 57.9 °F 84% 30.14 in 7.0 mi SSW 6.9 mph - 0.00 in Rain Light Rain
10:54 AM 63.0 °F 60.1 °F 90% 30.13 in 8.0 mi SSW 10.4 mph - 0.02 in Rain Light Rain
11:18 AM 64.4 °F 60.8 °F 88% 30.12 in 8.0 mi SSW 12.7 mph 18.4 mph 0.00 in Rain Light Rain
11:32 AM 62.6 °F 60.8 °F 94% 30.11 in 2.5 mi SSW 12.7 mph - 0.02 in Rain Rain
11:44 AM 64.4 °F 60.8 °F 88% 30.11 in 5.0 mi SSW 16.1 mph 20.7 mph 0.02 in Rain Light Rain
11:52 AM 64.4 °F 60.8 °F 88% 30.10 in 1.8 mi SSW 16.1 mph 26.5 mph 0.05 in Rain Heavy Rain
11:54 AM 64.0 °F 61.0 °F 90% 30.10 in 1.5 mi SSW 12.7 mph 26.5 mph 0.05 in Rain Rain
12:09 PM 64.4 °F 60.8 °F 88% 30.09 in 2.5 mi SSW 13.8 mph 21.9 mph 0.03 in Rain Light Rain
12:18 PM 64.4 °F 60.8 °F 88% 30.08 in 4.0 mi SSW 15.0 mph 18.4 mph 0.03 in Rain Light Rain
12:31 PM 64.4 °F 60.8 °F 88% 30.07 in 10.0 mi SSW 13.8 mph - 0.03 in   Overcast
12:54 PM 64.0 °F 61.0 °F 90% 30.05 in 6.0 mi SSW 11.5 mph - 0.03 in Rain Light Rain
1:38 PM 64.4 °F 60.8 °F 88% 30.03 in 10.0 mi SW 6.9 mph - 0.00 in Rain Light Rain
1:54 PM 64.9 °F 61.0 °F 87% 30.03 in 10.0 mi WSW 5.8 mph - 0.00 in   Overcast
2:46 PM 66.2 °F 60.8 °F 83% 30.03 in 10.0 mi SW 12.7 mph 20.7 mph N/A   Overcast
2:54 PM 66.9 °F 61.0 °F 81% 30.03 in 10.0 mi SW 11.5 mph 19.6 mph N/A   Overcast
3:54 PM 66.9 °F 61.0 °F 81% 30.01 in 10.0 mi SW 10.4 mph - N/A   Overcast
4:54 PM 66.9 °F 61.0 °F 81% 30.00 in 10.0 mi SW 6.9 mph - N/A   Mostly Cloudy
5:54 PM 66.0 °F 60.1 °F 81% 29.98 in 10.0 mi SSW 10.4 mph - N/A   Clear
6:38 PM 64.4 °F 60.8 °F 88% 29.99 in 10.0 mi SW 9.2 mph - N/A   Mostly Cloudy
6:54 PM 64.9 °F 60.1 °F 84% 29.99 in 10.0 mi SW 10.4 mph - N/A   Mostly Cloudy
7:54 PM 64.9 °F 61.0 °F 87% 30.00 in 10.0 mi SW 11.5 mph - 0.01 in Rain Light Rain
8:54 PM 64.9 °F 60.1 °F 84% 29.96 in 10.0 mi WSW 8.1 mph 16.1 mph 0.00 in   Scattered Clouds
9:07 PM 64.4 °F 60.8 °F 88% 29.96 in 10.0 mi West 8.1 mph - N/A   Mostly Cloudy
9:54 PM 64.9 °F 60.1 °F 84% 29.99 in 10.0 mi WSW 8.1 mph - N/A   Overcast
10:28 PM 64.4 °F 60.8 °F 88% 29.98 in 10.0 mi WSW 8.1 mph - N/A   Overcast
11:54 PM 64.9 °F 59.0 °F 81% 29.96 in 10.0 mi WSW 12.7 mph 20.7 mph N/A   Mostly Cloudy